FW9925 Weather Reports


time (UTC)temp
F
wind
direction
speed
knots
gust
knots
rain 1hr
in
rain 24hr
in
rain mn
in
humidity
%
barometer
mb
20260505230043 51 33 0.0 1.7 0.00 0.05 0.05 67 1007.5
20260505230028 52 330 0.9 6.1 0.00 0.07 0.07 68 1008.1
20260505225511 52 300 0.0 6.1 0.00 0.07 0.07 68 1008.2
20260505225011 52 0 0.9 5.2 0.00 0.07 0.07 68 1008.4
20260505224543 51 0 0.0 1.7 0.00 0.05 0.05 68 1007.7
20260505224531 52 0 0.0 6.1 0.00 0.07 0.07 68 1008.4
20260505224011 52 0 1.7 9.6 0.00 0.07 0.07 68 1008.4
20260505223513 52 298 1.7 9.6 0.00 0.07 0.07 68 1008.5
20260505223042 51 0 0.0 0.9 0.00 0.05 0.05 70 1007.6
20260505223028 52 309 4.3 9.6 0.00 0.07 0.07 68 1008.5
20260505222511 52 309 2.6 7.8 0.00 0.07 0.07 70 1008.4
20260505222014 52 264 0.9 7.0 0.00 0.07 0.07 70 1008.5
20260505221537 51 240 0.0 1.7 0.00 0.05 0.05 72 1007.8
20260505221528 52 286 2.6 11.3 0.00 0.07 0.07 71 1008.5
20260505221009 52 246 2.6 11.3 0.00 0.07 0.07 71 1008.5
20260505220512 52 314 2.6 7.8 0.00 0.07 0.07 72 1008.3
20260505220035 51 48 0.0 2.6 0.00 0.05 0.05 75 1007.5
20260505220027 52 303 1.7 7.8 0.00 0.07 0.07 74 1008.3
20260505215510 52 309 3.5 8.7 0.00 0.07 0.07 73 1008.3
20260505215012 52 285 3.5 8.7 0.00 0.07 0.07 74 1008.0
20260505214552 51 0 0.0 6.1 0.00 0.05 0.05 76 1007.4
20260505214536 52 0 1.7 7.8 0.00 0.07 0.07 75 1008.1
20260505214015 51 302 1.7 7.8 0.00 0.07 0.07 75 1008.0
20260505213510 51 345 2.6 7.0 0.00 0.07 0.07 75 1008.0
20260505213042 51 22 0.0 2.6 0.00 0.05 0.05 77 1007.3
20260505213027 51 281 1.7 9.6 0.01 0.07 0.07 75 1008.0
20260505212515 51 332 2.6 9.6 0.02 0.07 0.07 75 1008.1
20260505212013 51 323 3.5 7.8 0.03 0.07 0.07 76 1007.9
20260505211539 51 286 3.5 7.8 0.05 0.07 0.07 77 1007.8
20260505211536 51 44 0.0 0.9 0.01 0.05 0.05 79 1007.3
20260505211013 51 323 1.7 7.0 0.05 0.07 0.07 79 1008.0
20260505210516 51 321 0.9 6.1 0.05 0.07 0.07 80 1008.0
20260505210034 51 0 0.0 0.9 0.01 0.05 0.05 80 1007.4
20260505210029 52 350 1.7 6.1 0.05 0.07 0.07 80 1007.8
20260505205514 52 0 0.0 3.5 0.06 0.07 0.07 81 1007.9
20260505205012 52 303 0.9 5.2 0.07 0.07 0.07 80 1007.9
20260505204540 51 5 1.7 4.3 0.04 0.05 0.05 80 1007.1
20260505204530 52 284 0.9 6.1 0.07 0.07 0.07 79 1007.8
20260505204010 52 342 0.9 6.1 0.07 0.07 0.07 79 1007.7
20260505203511 52 342 0.9 3.5 0.07 0.07 0.07 78 1007.8
20260505203056 51 0 0.0 1.7 0.04 0.04 0.04 81 1007.3
20260505203037 53 0 0.9 5.2 0.06 0.06 0.06 77 1008.1
20260505202511 53 0 0.9 5.2 0.05 0.05 0.05 76 1007.7
20260505202012 54 313 1.7 7.0 0.03 0.03 0.03 75 1007.6
20260505201546 51 23 0.0 3.5 0.03 0.03 0.03 78 1007.0
20260505201528 54 281 0.0 7.8 0.02 0.02 0.02 74 1007.4
20260505201015 54 14 1.7 7.8 0.02 0.02 0.02 72 1007.4
20260505200512 55 345 2.6 7.8 0.02 0.02 0.02 71 1007.5
20260505200048 53 30 2.6 4.3 0.03 0.03 0.03 74 1006.9
20260505200030 55 0 2.6 12.2 0.02 0.02 0.02 69 1007.3
20260505195511 56 46 2.6 12.2 0.01 0.01 0.01 66 1007.4
20260505195013 57 298 3.5 9.6 0.00 0.00 0.00 63 1007.4
20260505194535 56 42 1.7 5.2 0.00 0.00 0.00 63 1006.7
20260505194528 58 297 2.6 9.6 0.00 0.00 0.00 60 1007.3
20260505194016 59 320 2.6 10.4 0.00 0.00 0.00 56 1007.1
20260505193513 59 274 3.5 12.2 0.00 0.00 0.00 54 1006.9
20260505193042 58 28 1.7 5.2 0.00 0.00 0.00 54 1006.2
20260505193027 59 304 3.5 12.2 0.00 0.00 0.00 54 1006.7
20260505192512 60 223 4.3 13.0 0.00 0.00 0.00 53 1006.6
20260505192009 60 289 5.2 13.0 0.00 0.00 0.00 51 1006.4
20260505191547 59 53 2.6 7.8 0.00 0.00 0.00 53 1005.8
20260505191528 61 323 5.2 13.0 0.00 0.00 0.00 51 1006.2
20260505191011 61 350 3.5 9.6 0.00 0.00 0.00 50 1006.1
20260505190512 61 301 2.6 9.6 0.00 0.00 0.00 50 1006.1
20260505190041 60 30 2.6 6.1 0.00 0.00 0.00 49 1005.7
20260505190027 61 317 1.7 7.8 0.00 0.00 0.00 50 1006.2
20260505185513 61 281 2.6 11.3 0.00 0.00 0.00 50 1006.2
20260505185012 61 247 3.5 11.3 0.00 0.00 0.00 49 1006.1
20260505184542 61 258 3.5 8.7 0.00 0.00 0.00 49 1006.1
20260505184540 60 12 0.0 7.8 0.00 0.00 0.00 51 1005.5
20260505184016 61 259 1.7 10.4 0.00 0.00 0.00 50 1006.0
20260505183511 61 314 4.3 11.3 0.00 0.00 0.00 49 1006.0
20260505183037 60 41 0.0 8.7 0.00 0.00 0.00 51 1005.4
20260505182512 62 211 3.5 13.0 0.00 0.00 0.00 50 1005.8
20260505182014 62 242 2.6 10.4 0.00 0.00 0.00 51 1005.7
20260505181546 61 18 0.9 8.7 0.00 0.00 0.00 51 1005.1
20260505181530 62 238 1.7 14.8 0.00 0.00 0.00 52 1005.6
20260505181012 62 355 2.6 14.8 0.00 0.00 0.00 52 1005.6
20260505180516 63 323 2.6 11.3 0.00 0.00 0.00 52 1005.4
20260505180051 61 0 0.9 7.0 0.00 0.00 0.00 52 1004.8
20260505180029 63 179 3.5 9.6 0.00 0.00 0.00 53 1005.3
20260505175510 63 334 2.6 11.3 0.00 0.00 0.00 53 1005.3
20260505175013 63 233 3.5 11.3 0.00 0.00 0.00 52 1005.2
20260505174544 62 256 4.3 10.4 0.00 0.00 0.00 52 1004.5
20260505174529 63 171 6.1 11.3 0.00 0.00 0.00 52 1005.1
20260505174011 63 279 3.5 12.2 0.00 0.00 0.00 54 1004.9
20260505173510 63 259 5.2 13.9 0.00 0.00 0.00 54 1004.9
20260505173043 62 231 1.7 8.7 0.00 0.00 0.00 52 1004.2
20260505173029 63 216 4.3 13.9 0.00 0.00 0.00 54 1004.8
20260505172511 63 236 5.2 13.9 0.00 0.00 0.00 55 1004.9
20260505172010 63 238 6.1 13.9 0.00 0.00 0.00 55 1004.8
20260505171544 63 22 1.7 6.1 0.00 0.00 0.00 54 1003.8
20260505171528 63 222 5.2 11.3 0.00 0.00 0.00 57 1004.7
20260505171010 63 292 3.5 13.0 0.00 0.00 0.00 59 1004.5
20260505170512 62 202 7.0 13.0 0.00 0.00 0.00 60 1004.6
20260505170055 63 231 1.7 6.1 0.00 0.00 0.00 56 1003.6
20260505170035 62 205 3.5 11.3 0.00 0.00 0.00 61 1004.4
20260505165510 62 227 4.3 12.2 0.00 0.00 0.00 62 1004.4
20260505165010 62 244 6.1 12.2 0.00 0.00 0.00 62 1004.4
20260505164543 62 257 1.7 7.0 0.00 0.00 0.00 61 1003.5
20260505164535 62 252 3.5 9.6 0.00 0.00 0.00 62 1004.3
20260505164011 62 251 1.7 10.4 0.00 0.00 0.00 63 1004.3
20260505163510 62 282 2.6 11.3 0.00 0.00 0.00 64 1004.6
20260505163045 61 198 1.7 6.1 0.00 0.00 0.00 64 1003.9
20260505163028 61 286 4.3 11.3 0.00 0.00 0.00 64 1004.6
20260505162513 61 229 3.5 12.2 0.00 0.00 0.00 65 1004.7
20260505162012 61 302 3.5 14.8 0.00 0.00 0.00 65 1004.8
20260505161540 60 215 2.6 7.0 0.00 0.00 0.00 65 1003.9
20260505161526 61 200 5.2 14.8 0.00 0.00 0.00 65 1004.7
20260505161011 61 227 6.1 17.4 0.00 0.00 0.00 66 1004.7
20260505160516 61 266 4.3 17.4 0.00 0.00 0.00 66 1004.5
20260505153047 59 37 0.9 3.5 0.00 0.00 0.00 67 1003.5
20260505153028 62 269 3.5 15.6 0.00 0.00 0.00 70 1004.1
20260505152511 62 236 5.2 10.4 0.00 0.00 0.00 70 1004.1
20260505152011 62 281 0.9 6.1 0.00 0.00 0.00 68 1004.0
20260505151557 60 8 0.9 4.3 0.00 0.00 0.00 68 1003.2
20260505151535 62 355 1.7 7.8 0.00 0.00 0.00 68 1003.7
20260505151010 62 306 2.6 7.8 0.00 0.00 0.00 68 1003.6
20260505150513 62 42 2.6 7.8 0.00 0.00 0.00 67 1003.5
20260505140512 65 231 3.5 8.7 0.00 0.00 0.00 68 1002.3
20260505125013 61 255 3.5 9.6 0.00 0.00 0.00 71 1001.3
20260505124540 61 229 2.6 7.0 0.00 0.00 0.00 73 1000.4
20260505124534 61 236 2.6 9.6 0.00 0.00 0.00 71 1001.2
20260505124014 61 248 5.2 9.6 0.00 0.00 0.00 71 1001.3
20260505123512 61 231 3.5 7.8 0.00 0.00 0.00 71 1001.2
20260505123037 60 243 0.9 4.3 0.00 0.00 0.00 74 999.9
20260505123030 61 211 2.6 6.1 0.00 0.00 0.00 72 1000.9
20260505122513 61 234 1.7 6.1 0.00 0.00 0.00 72 1000.8
20260505122015 61 252 2.6 7.0 0.00 0.00 0.00 72 1000.7
20260505121555 59 253 1.7 4.3 0.00 0.00 0.00 75 1000.0
20260505121536 61 248 2.6 7.0 0.00 0.00 0.00 72 1000.8
20260505121015 60 229 1.7 8.7 0.00 0.00 0.00 73 1000.9
20260505120515 60 219 3.5 8.7 0.00 0.00 0.00 73 1001.1
20260505120044 59 234 1.7 6.1 0.00 0.00 0.00 76 1000.2
20260505120029 60 252 2.6 10.4 0.00 0.00 0.00 73 1001.1
20260505115511 60 246 3.5 10.4 0.00 0.00 0.00 73 1001.1
20260505115015 60 279 5.2 10.4 0.00 0.00 0.00 73 1001.1
20260505114541 58 255 1.7 5.2 0.00 0.00 0.00 77 1000.1
20260505114529 60 230 4.3 12.2 0.00 0.00 0.00 73 1000.9
20260505114012 60 223 3.5 12.2 0.00 0.00 0.00 74 1000.9
20260505113511 60 240 3.5 11.3 0.00 0.00 0.00 74 1000.7
20260505113040 58 237 3.5 7.8 0.00 0.00 0.00 77 999.9
20260505112513 59 226 3.5 12.2 0.00 0.00 0.00 74 1000.7
20260505112015 59 212 4.3 12.2 0.00 0.00 0.00 75 1000.8
20260505111544 58 244 3.5 9.6 0.00 0.00 0.00 78 999.8
20260505111540 59 254 4.3 12.2 0.00 0.00 0.00 75 1000.7
20260505111014 60 250 4.3 12.2 0.00 0.00 0.00 75 1000.6
20260505110514 60 252 3.5 8.7 0.00 0.00 0.00 75 1000.6
20260505101552 58 250 3.5 9.6 0.00 0.00 0.00 77 998.9
20260505101010 59 241 2.6 7.8 0.00 0.00 0.00 75 999.8
20260505100509 59 254 3.5 10.4 0.00 0.00 0.00 75 999.8
20260505100043 58 262 2.6 9.6 0.00 0.00 0.00 76 998.7
20260505095512 59 212 3.5 7.8 0.00 0.00 0.00 75 999.7
20260505095013 59 225 2.6 6.1 0.00 0.00 0.00 75 999.7
20260505094540 58 233 5.2 8.7 0.00 0.00 0.00 76 998.8
20260505094012 59 221 3.5 8.7 0.00 0.00 0.00 75 999.7
20260505093512 59 226 4.3 8.7 0.00 0.00 0.00 75 999.7
20260505093043 58 245 5.2 9.6 0.00 0.00 0.00 75 998.8
20260505093039 59 255 4.3 8.7 0.00 0.00 0.00 74 999.6
20260505092513 59 250 3.5 8.7 0.00 0.00 0.00 74 999.7
20260505092013 59 219 4.3 10.4 0.00 0.00 0.00 74 999.6
20260505091540 58 162 4.3 9.6 0.00 0.00 0.00 75 998.7
20260505091530 59 207 4.3 10.4 0.00 0.00 0.00 74 999.6
20260505091011 59 231 3.5 7.0 0.00 0.00 0.00 74 999.7
20260505090511 59 230 3.5 8.7 0.00 0.00 0.00 74 999.5
20260505090057 59 243 4.3 8.7 0.00 0.00 0.00 75 998.6
20260505090032 59 220 4.3 9.6 0.00 0.00 0.00 74 999.5
20260505085511 59 209 4.3 16.5 0.00 0.00 0.00 74 999.6
20260505085011 60 250 4.3 16.5 0.00 0.00 0.00 73 999.4
20260505084551 59 251 4.3 12.2 0.00 0.00 0.00 74 998.6
20260505084530 60 227 4.3 9.6 0.00 0.00 0.00 74 999.5
20260505084011 60 244 4.3 15.6 0.00 0.00 0.00 73 999.4
20260505083510 60 229 4.3 15.6 0.00 0.00 0.00 73 999.6
20260505083040 60 229 7.0 11.3 0.00 0.00 0.00 73 998.7
20260505083036 60 236 5.2 14.8 0.00 0.00 0.00 73 999.7
20260505082512 61 219 5.2 10.4 0.00 0.00 0.00 72 999.6
20260505082014 61 232 4.3 10.4 0.00 0.00 0.00 72 999.7
20260505081544 60 261 4.3 12.2 0.00 0.00 0.00 73 998.8
20260505081530 62 250 6.1 9.6 0.00 0.00 0.00 71 999.7
20260505081015 62 245 4.3 8.7 0.00 0.00 0.00 71 999.9
20260505080517 62 234 3.5 10.4 0.00 0.00 0.00 71 1000.0
20260505080038 61 243 4.3 9.6 0.00 0.00 0.00 73 999.1
20260505080030 62 254 4.3 10.4 0.00 0.00 0.00 71 1000.0
20260505075512 62 284 2.6 7.8 0.00 0.00 0.00 71 1000.1
20260505075012 63 202 4.3 10.4 0.00 0.00 0.00 70 1000.0
20260505074535 60 242 3.5 7.8 0.00 0.00 0.00 73 999.0
20260505074529 63 227 3.5 10.4 0.00 0.00 0.00 70 999.9
20260505074012 63 211 2.6 11.3 0.00 0.00 0.00 70 1000.0
20260505073509 63 250 5.2 11.3 0.00 0.00 0.00 70 1000.0
20260505073038 60 240 4.3 7.8 0.00 0.00 0.00 72 999.1
20260505073030 63 254 4.3 10.4 0.00 0.00 0.00 70 999.9
20260505072511 63 250 5.2 10.4 0.00 0.00 0.00 71 999.9
20260505072012 62 238 5.2 10.4 0.00 0.00 0.00 71 999.8
20260505071540 60 252 2.6 7.8 0.00 0.00 0.00 71 998.9
20260505071529 62 249 4.3 12.2 0.00 0.00 0.00 71 999.7
20260505071013 62 262 4.3 12.2 0.00 0.00 0.00 71 999.7
20260505070513 61 273 5.2 12.2 0.00 0.00 0.00 71 999.8
20260505070044 60 247 3.5 8.7 0.00 0.00 0.00 71 998.9
20260505070030 61 243 2.6 7.8 0.00 0.00 0.00 72 999.9
20260505065513 60 228 1.7 6.1 0.00 0.00 0.00 72 1000.0
20260505065013 60 236 2.6 7.0 0.00 0.00 0.00 72 1000.1
20260505064535 60 267 2.6 6.1 0.00 0.00 0.00 71 999.1
20260505064527 60 243 1.7 9.6 0.00 0.00 0.00 73 1000.1
20260505064011 59 205 1.7 9.6 0.00 0.00 0.00 73 1000.1
20260505063512 59 225 1.7 5.2 0.00 0.00 0.00 72 1000.1
20260505063039 59 224 1.7 7.8 0.00 0.00 0.00 72 999.3
20260505063029 59 217 2.6 5.2 0.00 0.00 0.00 72 1000.2
20260505062523 60 257 0.9 4.3 0.00 0.00 0.00 71 1000.2
20260505062515 60 197 1.7 9.6 0.00 0.00 0.00 70 1000.2
20260505061546 58 253 2.6 7.0 0.00 0.00 0.00 72 999.4
20260505061529 61 218 1.7 9.6 0.00 0.00 0.00 70 1000.3
20260505061013 61 220 4.3 9.6 0.00 0.00 0.00 71 1000.4
20260505060511 60 232 3.5 8.7 0.00 0.00 0.00 71 1000.4
20260505060046 58 250 2.6 8.7 0.00 0.00 0.00 72 999.6
20260505060026 60 231 4.3 8.7 0.00 0.00 0.00 72 1000.5
20260505055511 60 263 3.5 7.8 0.00 0.00 0.00 72 1000.7
20260505055013 59 228 4.3 7.8 0.00 0.00 0.00 72 1000.7
20260505054545 58 238 3.5 6.1 0.00 0.00 0.00 72 999.7
20260505054541 59 213 3.5 7.8 0.00 0.00 0.00 72 1000.6
20260505054015 58 241 3.5 7.8 0.00 0.00 0.00 73 1000.6
20260505053513 58 218 3.5 7.0 0.00 0.00 0.00 74 1000.6
20260505053042 59 254 3.5 7.8 0.00 0.00 0.00 72 999.5
20260505053029 58 223 1.7 5.2 0.00 0.00 0.00 73 1000.6
20260505052512 58 219 1.7 6.1 0.00 0.00 0.00 73 1000.4
20260505052012 59 157 2.6 7.0 0.00 0.00 0.00 72 1000.5
20260505051544 59 205 4.3 7.8 0.00 0.00 0.00 73 999.6
20260505051528 59 213 2.6 7.0 0.00 0.00 0.00 73 1000.5
20260505051014 59 214 2.6 8.7 0.00 0.00 0.00 73 1000.5
20260505050514 59 269 4.3 8.7 0.00 0.00 0.00 73 1000.7
20260505041539 61 259 3.5 8.7 0.00 0.00 0.00 69 999.6
20260505041531 60 223 4.3 12.2 0.00 0.00 0.00 71 1000.7
20260505041013 60 208 6.1 12.2 0.00 0.00 0.00 70 1000.6
20260505040513 60 190 7.0 11.3 0.00 0.00 0.00 70 1000.5
20260505040040 61 194 6.1 12.2 0.00 0.00 0.00 70 1000.6
20260505040037 61 214 4.3 14.8 0.00 0.00 0.00 67 999.8
20260505035514 61 278 7.0 12.2 0.00 0.00 0.00 69 1000.7
20260505035010 61 242 4.3 9.6 0.00 0.00 0.00 70 1000.8
20260505034536 60 197 3.5 7.8 0.00 0.00 0.00 70 1000.9
20260505034010 60 214 2.6 7.0 0.00 0.00 0.00 68 1001.0
20260505033510 60 229 1.7 7.0 0.00 0.00 0.00 67 1001.0
20260505033057 62 243 2.6 7.8 0.00 0.00 0.00 62 1000.0
20260505033026 60 192 1.7 7.0 0.00 0.00 0.00 66 1001.0
20260505032513 61 208 1.7 8.7 0.00 0.00 0.00 65 1001.0
20260505032013 61 202 3.5 12.2 0.00 0.00 0.00 64 1001.1
20260505031542 62 235 3.5 13.0 0.00 0.00 0.00 60 1000.2
20260505031527 62 224 3.5 12.2 0.00 0.00 0.00 63 1001.1
20260505031013 62 226 4.3 12.2 0.00 0.00 0.00 62 1001.1
20260505030513 62 198 4.3 9.6 0.00 0.00 0.00 61 1001.2
20260505030040 63 259 2.6 11.3 0.00 0.00 0.00 57 1000.5
20260505030028 63 208 5.2 9.6 0.00 0.00 0.00 59 1001.3
20260505025516 63 219 3.5 10.4 0.00 0.00 0.00 58 1001.2
20260505025011 63 231 4.3 10.4 0.00 0.00 0.00 57 1001.4
20260505024536 63 215 3.5 11.3 0.00 0.00 0.00 54 1000.5
20260505024528 64 242 4.3 10.4 0.00 0.00 0.00 56 1001.4
20260505024012 64 217 4.3 9.6 0.00 0.00 0.00 56 1001.4
20260505023512 64 267 4.3 9.6 0.00 0.00 0.00 54 1001.5
20260505023044 64 257 5.2 13.9 0.00 0.00 0.00 52 1000.7
20260505023028 64 253 4.3 10.4 0.00 0.00 0.00 53 1001.5
20260505022510 64 219 4.3 10.4 0.00 0.00 0.00 52 1001.6
20260505022011 64 225 4.3 12.2 0.00 0.00 0.00 51 1001.7
20260505021540 65 233 3.5 9.6 0.00 0.00 0.00 47 1000.8
20260505021529 64 198 4.3 12.2 0.00 0.00 0.00 51 1001.7
20260505021016 64 218 4.3 8.7 0.00 0.00 0.00 50 1001.7
20260505020512 64 202 4.3 9.6 0.00 0.00 0.00 50 1001.5
20260505020046 65 242 1.7 7.0 0.00 0.00 0.00 44 1000.7
20260505020037 64 201 4.3 9.6 0.00 0.00 0.00 50 1001.5
20260505015513 63 218 3.5 11.3 0.00 0.00 0.00 49 1001.4
20260505015016 63 234 3.5 11.3 0.00 0.00 0.00 49 1001.3
20260505014542 66 251 2.6 6.1 0.00 0.00 0.00 42 1000.5
20260505014530 63 239 3.5 11.3 0.00 0.00 0.00 48 1001.3
20260505014014 64 206 4.3 11.3 0.00 0.00 0.00 47 1001.4
20260505013512 64 210 4.3 11.3 0.00 0.00 0.00 47 1001.2
20260505013038 66 265 1.7 5.2 0.00 0.00 0.00 40 1000.4
20260505013030 64 243 1.7 5.2 0.00 0.00 0.00 47 1001.3
20260505012512 64 212 2.6 5.2 0.00 0.00 0.00 46 1001.2
20260505012012 64 222 1.7 5.2 0.00 0.00 0.00 45 1001.3
20260505011536 66 273 1.7 6.1 0.00 0.00 0.00 38 1000.5
20260505011530 65 219 1.7 4.3 0.00 0.00 0.00 44 1001.2
20260505011013 65 227 1.7 7.0 0.00 0.00 0.00 42 1001.2
20260505010554 66 210 2.6 7.0 0.00 0.00 0.00 41 1001.2
20260505010044 67 246 5.2 11.3 0.00 0.00 0.00 37 1000.5
20260505010031 67 217 3.5 8.7 0.00 0.00 0.00 40 1001.1
20260505005513 67 217 2.6 9.6 0.00 0.00 0.00 38 1001.0
20260505005012 68 269 4.3 9.6 0.00 0.00 0.00 37 1001.0
20260505004547 67 227 1.7 7.0 0.00 0.00 0.00 36 1000.4
20260505004528 68 243 4.3 9.6 0.00 0.00 0.00 36 1001.0
20260505004010 69 211 2.6 10.4 0.00 0.00 0.00 35 1001.0
20260505003516 69 204 3.5 10.4 0.00 0.00 0.00 34 1001.0
20260505003043 68 244 5.2 9.6 0.00 0.00 0.00 35 1000.4
20260505003027 69 217 2.6 10.4 0.00 0.00 0.00 34 1000.9
20260505002512 69 229 3.5 10.4 0.00 0.00 0.00 33 1001.1
20260505002013 69 277 3.5 9.6 0.00 0.00 0.00 33 1001.1
20260505001543 68 261 4.3 7.8 0.00 0.00 0.00 35 1000.4
20260505001528 70 262 3.5 12.2 0.00 0.00 0.00 33 1001.3
20260505001012 70 112 4.3 20.0 0.00 0.00 0.00 33 1001.3
20260505000513 70 261 4.3 20.0 0.00 0.00 0.00 33 1001.4
20260505000044 69 267 4.3 10.4 0.00 0.00 0.00 35 1000.8
20260505000042 69 243 3.5 13.0 0.00 0.00 0.00 34 1001.5
20260504235513 69 249 6.1 13.0 0.00 0.00 0.00 34 1001.5
20260504235012 69 263 5.2 10.4 0.00 0.00 0.00 34 1001.5
20260504234558 69 255 2.6 11.3 0.00 0.00 0.00 35 1000.7
20260504234528 69 227 4.3 15.6 0.00 0.00 0.00 35 1001.5
20260504234012 69 259 6.1 15.6 0.00 0.00 0.00 35 1001.6
20260504233512 69 217 4.3 16.5 0.00 0.00 0.00 35 1001.6
20260504233035 69 232 3.5 8.7 0.00 0.00 0.00 36 1000.8
20260504233030 69 257 4.3 16.5 0.00 0.00 0.00 35 1001.6
20260504232511 69 285 4.3 13.0 0.00 0.00 0.00 36 1001.7
20260504232012 69 225 5.2 12.2 0.00 0.00 0.00 37 1001.7
20260504231551 70 217 4.3 11.3 0.00 0.00 0.00 36 1000.9
20260504231530 69 229 4.3 9.6 0.00 0.00 0.00 37 1001.7
20260504231019 69 236 3.5 8.7 0.00 0.00 0.00 37 1001.7
20260504230511 69 220 5.2 13.0 0.00 0.00 0.00 37 1001.7